Year,Month,Day,Hour,Minute,Value (Times are PST for windgust in km/hr)
2010,04,27,00,00,17.70
2010,04,27,00,01,11.30
2010,04,27,00,02,16.10
2010,04,27,00,03,16.10
2010,04,27,00,04,19.30
2010,04,27,00,05,9.60
2010,04,27,00,06,11.30
2010,04,27,00,07,20.90
2010,04,27,00,08,27.40
2010,04,27,00,09,19.30
2010,04,27,00,10,17.70
2010,04,27,00,11,14.50
2010,04,27,00,12,19.30
2010,04,27,00,13,17.70
2010,04,27,00,14,20.90
2010,04,27,00,15,11.30
2010,04,27,00,16,17.70
2010,04,27,00,17,14.50
2010,04,27,00,18,11.30
2010,04,27,00,19,16.10
2010,04,27,00,20,25.70
2010,04,27,00,21,24.20
2010,04,27,00,22,16.10
2010,04,27,00,23,22.50
2010,04,27,00,24,29.00
2010,04,27,00,25,32.20
2010,04,27,00,26,20.90
2010,04,27,00,27,11.30
2010,04,27,00,28,20.90
2010,04,27,00,29,20.90
2010,04,27,00,30,30.60
2010,04,27,00,31,22.50
2010,04,27,00,32,20.90
2010,04,27,00,33,27.40
2010,04,27,00,34,29.00
2010,04,27,00,35,24.20
2010,04,27,00,36,22.50
2010,04,27,00,37,16.10
2010,04,27,00,38,27.40
2010,04,27,00,39,19.30
2010,04,27,00,40,25.70
2010,04,27,00,41,27.40
2010,04,27,00,42,22.50
2010,04,27,00,43,25.70
2010,04,27,00,44,22.50
2010,04,27,00,45,30.60
2010,04,27,00,46,24.20
2010,04,27,00,47,30.60
2010,04,27,00,48,24.20
2010,04,27,00,49,16.10
2010,04,27,00,50,22.50
2010,04,27,00,51,11.30
2010,04,27,00,52,22.50
2010,04,27,00,53,24.20
2010,04,27,00,54,11.30
2010,04,27,00,55,12.90
2010,04,27,00,56,27.40
2010,04,27,00,57,20.90
2010,04,27,00,58,22.50
2010,04,27,00,59,27.40
2010,04,27,01,00,30.60
2010,04,27,01,01,19.30
2010,04,27,01,02,24.20
2010,04,27,01,03,24.20
2010,04,27,01,04,17.70
2010,04,27,01,05,24.20
2010,04,27,01,06,25.70
2010,04,27,01,07,20.90
2010,04,27,01,08,19.30
2010,04,27,01,09,24.20
2010,04,27,01,10,27.40
2010,04,27,01,11,30.60
2010,04,27,01,12,25.70
2010,04,27,01,13,30.60
2010,04,27,01,14,27.40
2010,04,27,01,15,29.00
2010,04,27,01,16,29.00
2010,04,27,01,17,25.70
2010,04,27,01,18,27.40
2010,04,27,01,19,22.50
2010,04,27,01,20,32.20
2010,04,27,01,21,30.60
2010,04,27,01,22,29.00
2010,04,27,01,23,29.00
2010,04,27,01,24,22.50
2010,04,27,01,25,17.70
2010,04,27,01,26,24.20
2010,04,27,01,27,25.70
2010,04,27,01,28,30.60
2010,04,27,01,29,22.50
2010,04,27,01,30,24.20
2010,04,27,01,31,33.80
2010,04,27,01,32,29.00
2010,04,27,01,33,27.40
2010,04,27,01,34,29.00
2010,04,27,01,35,33.80
2010,04,27,01,36,33.80
2010,04,27,01,37,27.40
2010,04,27,01,38,20.90
2010,04,27,01,39,16.10
2010,04,27,01,40,20.90
2010,04,27,01,41,25.70
2010,04,27,01,42,24.20
2010,04,27,01,43,25.70
2010,04,27,01,44,27.40
2010,04,27,01,45,30.60
2010,04,27,01,46,29.00
2010,04,27,01,47,27.40
2010,04,27,01,48,24.20
2010,04,27,01,49,24.20
2010,04,27,01,50,16.10
2010,04,27,01,51,27.40
2010,04,27,01,52,20.90
2010,04,27,01,53,22.50
2010,04,27,01,54,29.00
2010,04,27,01,55,14.50
2010,04,27,01,56,19.30
2010,04,27,01,57,27.40
2010,04,27,01,58,19.30
2010,04,27,01,59,32.20
2010,04,27,02,00,27.40
2010,04,27,02,01,29.00
2010,04,27,02,02,32.20
2010,04,27,02,03,17.70
2010,04,27,02,04,37.00
2010,04,27,02,05,16.10
2010,04,27,02,06,24.20
2010,04,27,02,07,25.70
2010,04,27,02,08,27.40
2010,04,27,02,09,22.50
2010,04,27,02,10,30.60
2010,04,27,02,11,25.70
2010,04,27,02,12,22.50
2010,04,27,02,13,24.20
2010,04,27,02,14,20.90
2010,04,27,02,15,19.30
2010,04,27,02,16,20.90
2010,04,27,02,17,19.30
2010,04,27,02,18,17.70
2010,04,27,02,19,19.30
2010,04,27,02,20,22.50
2010,04,27,02,21,19.30
2010,04,27,02,22,20.90
2010,04,27,02,23,17.70
2010,04,27,02,24,11.30
2010,04,27,02,25,14.50
2010,04,27,02,26,20.90
2010,04,27,02,27,30.60
2010,04,27,02,28,16.10
2010,04,27,02,29,19.30
2010,04,27,02,30,17.70
2010,04,27,02,31,30.60
2010,04,27,02,32,19.30
2010,04,27,02,33,22.50
2010,04,27,02,34,16.10
2010,04,27,02,35,25.70
2010,04,27,02,36,27.40
2010,04,27,02,37,27.40
2010,04,27,02,38,17.70
2010,04,27,02,39,14.50
2010,04,27,02,40,20.90
2010,04,27,02,41,22.50
2010,04,27,02,42,19.30
2010,04,27,02,43,14.50
2010,04,27,02,44,20.90
2010,04,27,02,45,11.30
2010,04,27,02,46,16.10
2010,04,27,02,47,19.30
2010,04,27,02,48,11.30
2010,04,27,02,49,14.50
2010,04,27,02,50,9.60
2010,04,27,02,51,9.60
2010,04,27,02,52,11.30
2010,04,27,02,53,11.30
2010,04,27,02,54,14.50
2010,04,27,02,55,9.60
2010,04,27,02,56,9.60
2010,04,27,02,57,8.10
2010,04,27,02,58,8.10
2010,04,27,02,59,8.10
2010,04,27,03,00,9.60
2010,04,27,03,01,11.30
2010,04,27,03,02,11.30
2010,04,27,03,03,8.10
2010,04,27,03,04,6.40
2010,04,27,03,05,11.30
2010,04,27,03,06,9.60
2010,04,27,03,07,8.10
2010,04,27,03,08,8.10
2010,04,27,03,09,4.80
2010,04,27,03,11,4.80
2010,04,27,03,12,4.80
2010,04,27,03,13,6.40
2010,04,27,03,14,1.60
2010,04,27,03,16,4.80
2010,04,27,03,17,8.10
2010,04,27,03,18,4.80
2010,04,27,03,19,4.80
2010,04,27,03,20,4.80
2010,04,27,03,21,6.40
2010,04,27,03,22,9.60
2010,04,27,03,23,6.40
2010,04,27,03,24,3.20
2010,04,27,03,25,3.20
2010,04,27,03,26,4.80
2010,04,27,03,27,8.10
2010,04,27,03,28,9.60
2010,04,27,03,29,8.10
2010,04,27,03,30,6.40
2010,04,27,03,31,1.60
2010,04,27,03,32,3.20
2010,04,27,03,33,4.80
2010,04,27,03,34,4.80
2010,04,27,03,35,1.60
2010,04,27,03,36,3.20
2010,04,27,03,37,3.20
2010,04,27,03,39,6.40
2010,04,27,03,40,4.80
2010,04,27,03,43,1.60
2010,04,27,03,45,3.20
2010,04,27,03,46,3.20
2010,04,27,03,47,4.80
2010,04,27,03,48,3.20
2010,04,27,03,49,1.60
2010,04,27,03,50,3.20
2010,04,27,03,51,1.60
2010,04,27,03,55,1.60
2010,04,27,03,57,9.60
2010,04,27,03,58,8.10
2010,04,27,03,59,6.40
2010,04,27,04,00,4.80
2010,04,27,04,01,4.80
2010,04,27,04,02,4.80
2010,04,27,04,03,4.80
2010,04,27,04,04,6.40
2010,04,27,04,05,6.40
2010,04,27,04,06,3.20
2010,04,27,04,07,4.80
2010,04,27,04,08,8.10
2010,04,27,04,09,4.80
2010,04,27,04,10,3.20
2010,04,27,04,12,1.60
2010,04,27,04,13,3.20
2010,04,27,04,14,4.80
2010,04,27,04,15,4.80
2010,04,27,04,16,4.80
2010,04,27,04,17,3.20
2010,04,27,04,18,3.20
2010,04,27,04,19,3.20
2010,04,27,04,20,1.60
2010,04,27,04,22,4.80
2010,04,27,04,23,4.80
2010,04,27,04,24,4.80
2010,04,27,04,25,3.20
2010,04,27,04,26,6.40
2010,04,27,04,27,6.40
2010,04,27,04,28,4.80
2010,04,27,04,29,4.80
2010,04,27,04,34,3.20
2010,04,27,04,35,4.80
2010,04,27,04,36,4.80
2010,04,27,04,41,1.60
2010,04,27,04,45,3.20
2010,04,27,04,48,3.20
2010,04,27,04,49,1.60
2010,04,27,04,50,11.30
2010,04,27,04,51,9.60
2010,04,27,04,52,6.40
2010,04,27,04,53,6.40
2010,04,27,04,54,4.80
2010,04,27,04,55,3.20
2010,04,27,04,56,8.10
2010,04,27,04,57,16.10
2010,04,27,04,58,14.50
2010,04,27,04,59,8.10
2010,04,27,05,00,8.10
2010,04,27,05,01,9.60
2010,04,27,05,02,9.60
2010,04,27,05,03,11.30
2010,04,27,05,04,9.60
2010,04,27,05,05,8.10
2010,04,27,05,06,17.70
2010,04,27,05,07,11.30
2010,04,27,05,08,8.10
2010,04,27,05,09,9.60
2010,04,27,05,10,6.40
2010,04,27,05,11,6.40
2010,04,27,05,12,4.80
2010,04,27,05,13,6.40
2010,04,27,05,14,4.80
2010,04,27,05,15,6.40
2010,04,27,05,16,6.40
2010,04,27,05,17,1.60
2010,04,27,05,18,4.80
2010,04,27,05,19,3.20
2010,04,27,05,20,8.10
2010,04,27,05,21,3.20
2010,04,27,05,22,8.10
2010,04,27,05,23,11.30
2010,04,27,05,24,16.10
2010,04,27,05,25,9.60
2010,04,27,05,26,12.90
2010,04,27,05,27,6.40
2010,04,27,05,28,17.70
2010,04,27,05,29,6.40
2010,04,27,05,30,16.10
2010,04,27,05,31,8.10
2010,04,27,05,32,14.50
2010,04,27,05,33,17.70
2010,04,27,05,34,6.40
2010,04,27,05,35,11.30
2010,04,27,05,36,17.70
2010,04,27,05,37,14.50
2010,04,27,05,38,11.30
2010,04,27,05,39,1.60
2010,04,27,05,40,3.20
2010,04,27,05,41,9.60
2010,04,27,05,42,3.20
2010,04,27,05,43,9.60
2010,04,27,05,44,11.30
2010,04,27,05,45,11.30
2010,04,27,05,46,3.20
2010,04,27,05,47,8.10
2010,04,27,05,48,8.10
2010,04,27,05,49,4.80
2010,04,27,05,50,6.40
2010,04,27,05,51,6.40
2010,04,27,05,52,6.40
2010,04,27,05,53,3.20
2010,04,27,05,54,16.10
2010,04,27,05,55,9.60
2010,04,27,05,56,12.90
2010,04,27,05,57,12.90
2010,04,27,05,58,11.30
2010,04,27,05,59,6.40
2010,04,27,06,00,4.80
2010,04,27,06,01,9.60
2010,04,27,06,02,9.60
2010,04,27,06,05,1.60
2010,04,27,06,06,6.40
2010,04,27,06,07,6.40
2010,04,27,06,08,3.20
2010,04,27,06,09,1.60
2010,04,27,06,11,4.80
2010,04,27,06,12,4.80
2010,04,27,06,16,3.20
2010,04,27,06,17,4.80
2010,04,27,06,18,3.20
2010,04,27,06,19,4.80
2010,04,27,06,20,4.80
2010,04,27,06,21,4.80
2010,04,27,06,22,1.60
2010,04,27,06,23,4.80
2010,04,27,06,24,4.80
2010,04,27,06,25,6.40
2010,04,27,06,26,8.10
2010,04,27,06,27,8.10
2010,04,27,06,28,6.40
2010,04,27,06,29,4.80
2010,04,27,06,30,4.80
2010,04,27,06,31,3.20
2010,04,27,06,32,3.20
2010,04,27,06,35,1.60
2010,04,27,06,36,4.80
2010,04,27,06,37,4.80
2010,04,27,06,38,3.20
2010,04,27,06,39,6.40
2010,04,27,06,40,4.80
2010,04,27,06,41,3.20
2010,04,27,06,43,1.60
2010,04,27,06,44,3.20
2010,04,27,06,45,3.20
2010,04,27,06,46,4.80
2010,04,27,06,47,4.80
2010,04,27,06,48,4.80
2010,04,27,06,49,6.40
2010,04,27,06,50,8.10
2010,04,27,06,51,8.10
2010,04,27,06,52,6.40
2010,04,27,06,53,6.40
2010,04,27,06,54,6.40
2010,04,27,06,55,6.40
2010,04,27,06,56,3.20
2010,04,27,06,57,3.20
2010,04,27,07,02,1.60
2010,04,27,07,03,1.60
2010,04,27,07,04,4.80
2010,04,27,07,05,3.20
2010,04,27,07,06,4.80
2010,04,27,07,07,8.10
2010,04,27,07,08,6.40
2010,04,27,07,09,3.20
2010,04,27,07,10,4.80
2010,04,27,07,11,4.80
2010,04,27,07,12,3.20
2010,04,27,07,13,6.40
2010,04,27,07,14,4.80
2010,04,27,07,15,4.80
2010,04,27,07,16,1.60
2010,04,27,07,17,1.60
2010,04,27,07,18,6.40
2010,04,27,07,19,3.20
2010,04,27,07,20,4.80
2010,04,27,07,21,6.40
2010,04,27,07,22,4.80
2010,04,27,07,27,1.60
2010,04,27,07,28,3.20
2010,04,27,07,29,1.60
2010,04,27,07,37,3.20
2010,04,27,07,38,4.80
2010,04,27,07,39,3.20
2010,04,27,07,40,4.80
2010,04,27,07,41,1.60
2010,04,27,07,42,4.80
2010,04,27,07,43,4.80
2010,04,27,07,44,9.60
2010,04,27,07,45,9.60
2010,04,27,07,46,8.10
2010,04,27,07,47,8.10
2010,04,27,07,48,6.40
2010,04,27,07,49,8.10
2010,04,27,07,50,8.10
2010,04,27,07,51,9.60
2010,04,27,07,52,9.60
2010,04,27,07,53,9.60
2010,04,27,07,54,9.60
2010,04,27,07,55,6.40
2010,04,27,07,56,9.60
2010,04,27,07,57,9.60
2010,04,27,07,58,17.70
2010,04,27,07,59,11.30
2010,04,27,08,00,14.50
2010,04,27,08,01,16.10
2010,04,27,08,02,14.50
2010,04,27,08,03,17.70
2010,04,27,08,04,9.60
2010,04,27,08,05,8.10
2010,04,27,08,06,6.40
2010,04,27,08,07,12.90
2010,04,27,08,08,9.60
2010,04,27,08,09,11.30
2010,04,27,08,10,6.40
2010,04,27,08,11,6.40
2010,04,27,08,12,8.10
2010,04,27,08,13,8.10
2010,04,27,08,14,11.30
2010,04,27,08,15,11.30
2010,04,27,08,16,9.60
2010,04,27,08,17,6.40
2010,04,27,08,18,1.60
2010,04,27,08,19,3.20
2010,04,27,08,20,8.10
2010,04,27,08,21,4.80
2010,04,27,08,22,9.60
2010,04,27,08,23,9.60
2010,04,27,08,24,8.10
2010,04,27,08,25,6.40
2010,04,27,08,26,8.10
2010,04,27,08,27,4.80
2010,04,27,08,28,3.20
2010,04,27,08,29,9.60
2010,04,27,08,30,8.10
2010,04,27,08,31,9.60
2010,04,27,08,32,8.10
2010,04,27,08,33,6.40
2010,04,27,08,34,6.40
2010,04,27,08,35,8.10
2010,04,27,08,36,8.10
2010,04,27,08,37,6.40
2010,04,27,08,38,6.40
2010,04,27,08,39,8.10
2010,04,27,08,40,8.10
2010,04,27,08,41,4.80
2010,04,27,08,42,4.80
2010,04,27,08,43,3.20
2010,04,27,08,44,4.80
2010,04,27,08,45,4.80
2010,04,27,08,46,3.20
2010,04,27,08,47,3.20
2010,04,27,08,48,4.80
2010,04,27,08,50,1.60
2010,04,27,08,54,4.80
2010,04,27,08,55,3.20
2010,04,27,08,56,1.60
2010,04,27,08,58,1.60
2010,04,27,09,02,1.60
2010,04,27,09,03,1.60
2010,04,27,09,04,1.60
2010,04,27,09,05,6.40
2010,04,27,09,06,6.40
2010,04,27,09,07,3.20
2010,04,27,09,08,4.80
2010,04,27,09,09,3.20
2010,04,27,09,10,4.80
2010,04,27,09,11,3.20
2010,04,27,09,12,3.20
2010,04,27,09,14,1.60
2010,04,27,09,15,3.20
2010,04,27,09,18,1.60
2010,04,27,09,19,1.60
2010,04,27,09,20,4.80
2010,04,27,09,21,8.10
2010,04,27,09,22,6.40
2010,04,27,09,23,8.10
2010,04,27,09,24,4.80
2010,04,27,09,25,6.40
2010,04,27,09,26,8.10
2010,04,27,09,27,3.20
2010,04,27,09,28,4.80
2010,04,27,09,29,6.40
2010,04,27,09,30,4.80
2010,04,27,09,31,1.60
2010,04,27,09,32,1.60
2010,04,27,09,33,1.60
2010,04,27,09,34,1.60
2010,04,27,09,35,4.80
2010,04,27,09,36,4.80
2010,04,27,09,37,4.80
2010,04,27,09,38,6.40
2010,04,27,09,39,4.80
2010,04,27,09,40,8.10
2010,04,27,09,41,6.40
2010,04,27,09,42,4.80
2010,04,27,09,43,3.20
2010,04,27,09,45,1.60
2010,04,27,09,46,6.40
2010,04,27,09,47,8.10
2010,04,27,09,48,6.40
2010,04,27,09,49,3.20
2010,04,27,09,50,3.20
2010,04,27,09,52,4.80
2010,04,27,09,53,3.20
2010,04,27,09,54,4.80
2010,04,27,09,55,3.20
2010,04,27,09,56,1.60
2010,04,27,09,57,6.40
2010,04,27,09,58,6.40
2010,04,27,09,59,3.20
2010,04,27,10,00,3.20
2010,04,27,10,01,1.60
2010,04,27,10,02,1.60
2010,04,27,10,03,1.60
2010,04,27,10,05,1.60
2010,04,27,10,06,3.20
2010,04,27,10,07,3.20
2010,04,27,10,08,6.40
2010,04,27,10,09,6.40
2010,04,27,10,10,8.10
2010,04,27,10,11,8.10
2010,04,27,10,12,9.60
2010,04,27,10,13,6.40
2010,04,27,10,14,6.40
2010,04,27,10,15,3.20
2010,04,27,10,16,3.20
2010,04,27,10,18,1.60
2010,04,27,10,21,1.60
2010,04,27,10,22,4.80
2010,04,27,10,23,4.80
2010,04,27,10,24,4.80
2010,04,27,10,26,4.80
2010,04,27,10,27,11.30
2010,04,27,10,28,14.50
2010,04,27,10,29,9.60
2010,04,27,10,30,9.60
2010,04,27,10,31,6.40
2010,04,27,10,32,4.80
2010,04,27,10,33,1.60
2010,04,27,10,34,4.80
2010,04,27,10,35,3.20
2010,04,27,10,36,4.80
2010,04,27,10,37,6.40
2010,04,27,10,38,8.10
2010,04,27,10,39,6.40
2010,04,27,10,40,6.40
2010,04,27,10,41,4.80
2010,04,27,10,42,4.80
2010,04,27,10,43,9.60
2010,04,27,10,44,9.60
2010,04,27,10,45,9.60
2010,04,27,10,46,9.60
2010,04,27,10,47,9.60
2010,04,27,10,48,6.40
2010,04,27,10,49,8.10
2010,04,27,10,50,6.40
2010,04,27,10,51,4.80
2010,04,27,10,52,4.80
2010,04,27,10,53,3.20
2010,04,27,10,54,6.40
2010,04,27,10,55,8.10
2010,04,27,10,56,11.30
2010,04,27,10,57,11.30
2010,04,27,10,58,11.30
2010,04,27,10,59,9.60
2010,04,27,11,00,6.40
2010,04,27,11,01,11.30
2010,04,27,11,02,16.10
2010,04,27,11,03,16.10
2010,04,27,11,04,11.30
2010,04,27,11,05,16.10
2010,04,27,11,06,14.50
2010,04,27,11,07,12.90
2010,04,27,11,08,14.50
2010,04,27,11,09,12.90
2010,04,27,11,10,19.30
2010,04,27,11,11,14.50
2010,04,27,11,12,9.60
2010,04,27,11,13,11.30
2010,04,27,11,14,17.70
2010,04,27,11,15,17.70
2010,04,27,11,16,12.90
2010,04,27,11,17,16.10
2010,04,27,11,18,14.50
2010,04,27,11,19,11.30
2010,04,27,11,20,19.30
2010,04,27,11,21,20.90
2010,04,27,11,22,17.70
2010,04,27,11,23,17.70
2010,04,27,11,24,16.10
2010,04,27,11,25,17.70
2010,04,27,11,26,16.10
2010,04,27,11,27,19.30
2010,04,27,11,28,19.30
2010,04,27,11,29,19.30
2010,04,27,11,30,8.10
2010,04,27,11,31,22.50
2010,04,27,11,32,22.50
2010,04,27,11,33,16.10
2010,04,27,11,34,17.70
2010,04,27,11,35,19.30
2010,04,27,11,36,20.90
2010,04,27,11,37,20.90
2010,04,27,11,38,20.90
2010,04,27,11,39,20.90
2010,04,27,11,40,19.30
2010,04,27,11,41,19.30
2010,04,27,11,42,19.30
2010,04,27,11,43,16.10
2010,04,27,11,44,16.10
2010,04,27,11,45,19.30
2010,04,27,11,46,17.70
2010,04,27,11,47,14.50
2010,04,27,11,48,14.50
2010,04,27,11,49,20.90
2010,04,27,11,50,19.30
2010,04,27,11,51,16.10
2010,04,27,11,52,11.30
2010,04,27,11,53,14.50
2010,04,27,11,54,14.50
2010,04,27,11,55,11.30
2010,04,27,11,56,14.50
2010,04,27,11,57,17.70
2010,04,27,11,58,20.90
2010,04,27,11,59,20.90
2010,04,27,12,00,17.70
2010,04,27,12,01,17.70
2010,04,27,12,02,17.70
2010,04,27,12,03,19.30
2010,04,27,12,04,9.60
2010,04,27,12,05,9.60
2010,04,27,12,06,11.30
2010,04,27,12,07,17.70
2010,04,27,12,08,11.30
2010,04,27,12,09,14.50
2010,04,27,12,10,9.60
2010,04,27,12,11,20.90
2010,04,27,12,12,20.90
2010,04,27,12,13,17.70
2010,04,27,12,14,12.90
2010,04,27,12,15,9.60
2010,04,27,12,16,8.10
2010,04,27,12,17,17.70
2010,04,27,12,18,11.30
2010,04,27,12,19,11.30
2010,04,27,12,20,14.50
2010,04,27,12,21,9.60
2010,04,27,12,22,11.30
2010,04,27,12,23,6.40
2010,04,27,12,24,9.60
2010,04,27,12,25,16.10
2010,04,27,12,26,16.10
2010,04,27,12,27,14.50
2010,04,27,12,28,9.60
2010,04,27,12,29,9.60
2010,04,27,12,30,14.50
2010,04,27,12,31,24.20
2010,04,27,12,32,20.90
2010,04,27,12,33,25.70
2010,04,27,12,34,16.10
2010,04,27,12,35,20.90
2010,04,27,12,36,17.70
2010,04,27,12,37,20.90
2010,04,27,12,38,22.50
2010,04,27,12,39,22.50
2010,04,27,12,40,19.30
2010,04,27,12,41,19.30
2010,04,27,12,42,16.10
2010,04,27,12,43,27.40
2010,04,27,12,44,19.30
2010,04,27,12,45,24.20
2010,04,27,12,46,22.50
2010,04,27,12,47,22.50
2010,04,27,12,48,22.50
2010,04,27,12,49,20.90
2010,04,27,12,50,25.70
2010,04,27,12,51,22.50
2010,04,27,12,52,27.40
2010,04,27,12,53,27.40
2010,04,27,12,54,27.40
2010,04,27,12,55,20.90
2010,04,27,12,56,20.90
2010,04,27,12,57,25.70
2010,04,27,12,58,20.90
2010,04,27,12,59,29.00
2010,04,27,13,00,33.80
2010,04,27,13,01,32.20
2010,04,27,13,02,24.20
2010,04,27,13,03,27.40
2010,04,27,13,04,25.70
2010,04,27,13,05,20.90
2010,04,27,13,06,32.20
2010,04,27,13,07,27.40
2010,04,27,13,08,22.50
2010,04,27,13,09,30.60
2010,04,27,13,10,27.40
2010,04,27,13,11,20.90
2010,04,27,13,12,19.30
2010,04,27,13,13,22.50
2010,04,27,13,14,24.20
2010,04,27,13,15,27.40
2010,04,27,13,16,25.70
2010,04,27,13,17,27.40
2010,04,27,13,18,24.20
2010,04,27,13,19,22.50
2010,04,27,13,20,24.20
2010,04,27,13,21,16.10
2010,04,27,13,22,16.10
2010,04,27,13,23,11.30
2010,04,27,13,24,19.30
2010,04,27,13,25,30.60
2010,04,27,13,26,20.90
2010,04,27,13,27,22.50
2010,04,27,13,28,22.50
2010,04,27,13,29,25.70
2010,04,27,13,30,24.20
2010,04,27,13,31,24.20
2010,04,27,13,32,22.50
2010,04,27,13,33,22.50
2010,04,27,13,34,20.90
2010,04,27,13,35,16.10
2010,04,27,13,36,17.70
2010,04,27,13,37,22.50
2010,04,27,13,38,22.50
2010,04,27,13,39,20.90
2010,04,27,13,40,16.10
2010,04,27,13,41,22.50
2010,04,27,13,42,19.30
2010,04,27,13,43,19.30
2010,04,27,13,44,22.50
2010,04,27,13,45,22.50
2010,04,27,13,46,20.90
2010,04,27,13,47,19.30
2010,04,27,13,48,17.70
2010,04,27,13,49,25.70
2010,04,27,13,50,17.70
2010,04,27,13,51,14.50
2010,04,27,13,52,19.30
2010,04,27,13,53,25.70
2010,04,27,13,54,24.20
2010,04,27,13,55,20.90
2010,04,27,13,56,19.30
2010,04,27,13,57,14.50
2010,04,27,13,58,17.70
2010,04,27,13,59,19.30
2010,04,27,14,00,17.70
2010,04,27,14,01,16.10
2010,04,27,14,02,16.10
2010,04,27,14,03,16.10
2010,04,27,14,04,17.70
2010,04,27,14,05,19.30
2010,04,27,14,06,19.30
2010,04,27,14,07,29.00
2010,04,27,14,08,17.70
2010,04,27,14,09,17.70
2010,04,27,14,10,9.60
2010,04,27,14,11,14.50
2010,04,27,14,12,16.10
2010,04,27,14,13,19.30
2010,04,27,14,14,17.70
2010,04,27,14,15,25.70
2010,04,27,14,16,25.70
2010,04,27,14,17,22.50
2010,04,27,14,18,25.70
2010,04,27,14,19,24.20
2010,04,27,14,20,16.10
2010,04,27,14,21,19.30
2010,04,27,14,22,25.70
2010,04,27,14,23,19.30
2010,04,27,14,24,11.30
2010,04,27,14,25,11.30
2010,04,27,14,26,16.10
2010,04,27,14,27,22.50
2010,04,27,14,28,20.90
2010,04,27,14,29,11.30
2010,04,27,14,30,9.60
2010,04,27,14,31,16.10
2010,04,27,14,32,20.90
2010,04,27,14,33,17.70
2010,04,27,14,34,17.70
2010,04,27,14,35,27.40
2010,04,27,14,36,30.60
2010,04,27,14,37,24.20
2010,04,27,14,38,20.90
2010,04,27,14,39,19.30
2010,04,27,14,40,22.50
2010,04,27,14,41,17.70
2010,04,27,14,42,20.90
2010,04,27,14,43,16.10
2010,04,27,14,44,20.90
2010,04,27,14,45,22.50
2010,04,27,14,46,16.10
2010,04,27,14,47,25.70
2010,04,27,14,48,22.50
2010,04,27,14,49,24.20
2010,04,27,14,50,19.30
2010,04,27,14,51,17.70
2010,04,27,14,52,20.90
2010,04,27,14,53,19.30
2010,04,27,14,54,19.30
2010,04,27,14,55,27.40
2010,04,27,14,56,19.30
2010,04,27,14,57,11.30
2010,04,27,14,58,17.70
2010,04,27,14,59,19.30
2010,04,27,15,00,20.90
2010,04,27,15,01,11.30
2010,04,27,15,02,20.90
2010,04,27,15,03,17.70
2010,04,27,15,04,25.70
2010,04,27,15,05,29.00
2010,04,27,15,06,27.40
2010,04,27,15,07,22.50
2010,04,27,15,08,17.70
2010,04,27,15,09,17.70
2010,04,27,15,10,25.70
2010,04,27,15,11,29.00
2010,04,27,15,12,27.40
2010,04,27,15,13,29.00
2010,04,27,15,14,22.50
2010,04,27,15,15,20.90
2010,04,27,15,16,25.70
2010,04,27,15,17,17.70
2010,04,27,15,18,25.70
2010,04,27,15,19,24.20
2010,04,27,15,20,24.20
2010,04,27,15,21,29.00
2010,04,27,15,22,24.20
2010,04,27,15,23,20.90
2010,04,27,15,24,22.50
2010,04,27,15,25,24.20
2010,04,27,15,26,19.30
2010,04,27,15,27,35.40
2010,04,27,15,28,37.00
2010,04,27,15,29,29.00
2010,04,27,15,30,25.70
2010,04,27,15,31,24.20
2010,04,27,15,32,33.80
2010,04,27,15,33,33.80
2010,04,27,15,34,37.00
2010,04,27,15,35,22.50
2010,04,27,15,36,22.50
2010,04,27,15,37,30.60
2010,04,27,15,38,19.30
2010,04,27,15,39,37.00
2010,04,27,15,40,37.00
2010,04,27,15,41,30.60
2010,04,27,15,42,33.80
2010,04,27,15,43,32.20
2010,04,27,15,44,29.00
2010,04,27,15,45,32.20
2010,04,27,15,46,25.70
2010,04,27,15,47,25.70
2010,04,27,15,48,32.20
2010,04,27,15,49,27.40
2010,04,27,15,50,30.60
2010,04,27,15,51,30.60
2010,04,27,15,52,29.00
2010,04,27,15,53,22.50
2010,04,27,15,54,27.40
2010,04,27,15,55,20.90
2010,04,27,15,56,24.20
2010,04,27,15,57,22.50
2010,04,27,15,58,20.90
2010,04,27,15,59,22.50
2010,04,27,16,00,17.70
2010,04,27,16,01,16.10
2010,04,27,16,02,16.10
2010,04,27,16,03,20.90
2010,04,27,16,04,20.90
2010,04,27,16,05,22.50
2010,04,27,16,06,14.50
2010,04,27,16,07,8.10
2010,04,27,16,08,19.30
2010,04,27,16,09,22.50
2010,04,27,16,10,27.40
2010,04,27,16,11,17.70
2010,04,27,16,12,27.40
2010,04,27,16,13,29.00
2010,04,27,16,14,27.40
2010,04,27,16,15,25.70
2010,04,27,16,16,20.90
2010,04,27,16,17,19.30
2010,04,27,16,18,24.20
2010,04,27,16,19,24.20
2010,04,27,16,20,19.30
2010,04,27,16,21,16.10
2010,04,27,16,22,17.70
2010,04,27,16,23,24.20
2010,04,27,16,24,22.50
2010,04,27,16,25,24.20
2010,04,27,16,26,20.90
2010,04,27,16,27,32.20
2010,04,27,16,28,24.20
2010,04,27,16,29,24.20
2010,04,27,16,30,14.50
2010,04,27,16,31,17.70
2010,04,27,16,32,22.50
2010,04,27,16,33,27.40
2010,04,27,16,34,20.90
2010,04,27,16,35,11.30
2010,04,27,16,36,35.40
2010,04,27,16,37,27.40
2010,04,27,16,38,20.90
2010,04,27,16,39,19.30
2010,04,27,16,40,19.30
2010,04,27,16,41,9.60
2010,04,27,16,42,9.60
2010,04,27,16,43,16.10
2010,04,27,16,44,16.10
2010,04,27,16,45,14.50
2010,04,27,16,46,19.30
2010,04,27,16,47,19.30
2010,04,27,16,48,17.70
2010,04,27,16,49,17.70
2010,04,27,16,50,17.70
2010,04,27,16,51,27.40
2010,04,27,16,52,29.00
2010,04,27,16,53,27.40
2010,04,27,16,54,30.60
2010,04,27,16,55,19.30
2010,04,27,16,56,19.30
2010,04,27,16,57,16.10
2010,04,27,16,58,25.70
2010,04,27,16,59,22.50
2010,04,27,17,00,29.00
2010,04,27,17,01,24.20
2010,04,27,17,02,29.00
2010,04,27,17,03,25.70
2010,04,27,17,04,22.50
2010,04,27,17,05,17.70
2010,04,27,17,06,30.60
2010,04,27,17,07,25.70
2010,04,27,17,08,24.20
2010,04,27,17,09,20.90
2010,04,27,17,10,17.70
2010,04,27,17,11,16.10
2010,04,27,17,12,19.30
2010,04,27,17,13,19.30
2010,04,27,17,14,25.70
2010,04,27,17,15,24.20
2010,04,27,17,16,19.30
2010,04,27,17,17,22.50
2010,04,27,17,18,17.70
2010,04,27,17,19,32.20
2010,04,27,17,20,29.00
2010,04,27,17,21,29.00
2010,04,27,17,22,27.40
2010,04,27,17,23,24.20
2010,04,27,17,24,30.60
2010,04,27,17,25,30.60
2010,04,27,17,26,9.60
2010,04,27,17,27,17.70
2010,04,27,17,28,24.20
2010,04,27,17,29,29.00
2010,04,27,17,30,27.40
2010,04,27,17,31,27.40
2010,04,27,17,32,27.40
2010,04,27,17,33,27.40
2010,04,27,17,34,37.00
2010,04,27,17,35,19.30
2010,04,27,17,36,24.20
2010,04,27,17,37,22.50
2010,04,27,17,38,29.00
2010,04,27,17,39,32.20
2010,04,27,17,40,22.50
2010,04,27,17,41,24.20
2010,04,27,17,42,37.00
2010,04,27,17,43,35.40
2010,04,27,17,44,33.80
2010,04,27,17,45,33.80
2010,04,27,17,46,27.40
2010,04,27,17,47,20.90
2010,04,27,17,48,33.80
2010,04,27,17,49,30.60
2010,04,27,17,50,32.20
2010,04,27,17,51,32.20
2010,04,27,17,52,33.80
2010,04,27,17,53,24.20
2010,04,27,17,54,37.00
2010,04,27,17,55,20.90
2010,04,27,17,56,30.60
2010,04,27,17,57,38.60
2010,04,27,17,58,24.20
2010,04,27,17,59,30.60
2010,04,27,18,00,25.70
2010,04,27,18,01,33.80
2010,04,27,18,02,27.40
2010,04,27,18,03,27.40
2010,04,27,18,04,29.00
2010,04,27,18,05,24.20
2010,04,27,18,06,14.50
2010,04,27,18,07,19.30
2010,04,27,18,08,17.70
2010,04,27,18,09,27.40
2010,04,27,18,10,30.60
2010,04,27,18,11,25.70
2010,04,27,18,12,22.50
2010,04,27,18,13,22.50
2010,04,27,18,14,17.70
2010,04,27,18,15,19.30
2010,04,27,18,16,22.50
2010,04,27,18,17,24.20
2010,04,27,18,18,20.90
2010,04,27,18,19,24.20
2010,04,27,18,20,24.20
2010,04,27,18,21,20.90
2010,04,27,18,22,19.30
2010,04,27,18,23,19.30
2010,04,27,18,24,27.40
2010,04,27,18,25,19.30
2010,04,27,18,26,27.40
2010,04,27,18,27,22.50
2010,04,27,18,28,19.30
2010,04,27,18,29,20.90
2010,04,27,18,30,22.50
2010,04,27,18,31,27.40
2010,04,27,18,32,30.60
2010,04,27,18,33,22.50
2010,04,27,18,34,16.10
2010,04,27,18,35,19.30
2010,04,27,18,36,22.50
2010,04,27,18,37,11.30
2010,04,27,18,38,8.10
2010,04,27,18,39,11.30
2010,04,27,18,40,22.50
2010,04,27,18,41,12.90
2010,04,27,18,42,11.30
2010,04,27,18,43,17.70